User: anonymous   Login
Location: ČR
(50.0000°N, 15.0000°E)
Time: 23:00:04
(UTC+01:00)
Language:

BlueWalker 3 - Orbit

View from above orbital plane
View from above orbital plane
View from above satellite
View from above satellite

Ground track
Ground track

The orbit data is extracted from the following two-line orbital elements,

1 53807U 22111AL  24051.89898675  .00007793  00000-0  32883-3 0  9995
2 53807  53.2378  13.2916 0010433 100.2292 259.9884 15.24196768 80330
Epoch (UTC): 20 February 2024 21:34:32
Eccentricity: 0.0010433
inclination: 53.2378°
perigee height: 486 km
apogee height: 500 km
right ascension of ascending node: 13.2916°
argument of perigee: 100.2292°
revolutions per day: 15.24196768
mean anomaly at epoch: 259.9884°
orbit number at epoch: 8033

The dashed part of the orbit path shows where the satellite is in the earth's shadow,  

DLR